This is the latest recevied weather packets stored in our database for station/object K9ABJ. If no packets are shown the sender has not sent any weather packets the latest 10 day(s).
| Time | Temp. | Humidity | Pressure | Rain* | Wind** | Luminosity | Snow |
|---|---|---|---|---|---|---|---|
| 1788600513 | 20.56° C | 95% | 1013.9 hPa | 0 mm | - | 0 W/m² | - |
| 1788600213 | 20.56° C | 95% | 1014 hPa | 0 mm | - | 0 W/m² | - |
| 1788599908 | 20.56° C | 95% | 1014 hPa | 0 mm | - | 0 W/m² | - |
| 1788599608 | 20.56° C | 95% | 1014.1 hPa | 0 mm | - | 0 W/m² | - |
| 1788599306 | 20.56° C | 95% | 1013.9 hPa | 0 mm | - | 0 W/m² | - |
| 1788599003 | 20.56° C | 95% | 1014.3 hPa | 0 mm | - | 0 W/m² | - |
| 1788598702 | 20.56° C | 95% | 1014.2 hPa | 0 mm | - | 0 W/m² | - |
| 1788598396 | 20° C | 95% | 1014.3 hPa | 9.65 mm | - | 0 W/m² | - |
| 1788598092 | 20.56° C | 95% | 1014.1 hPa | 17.53 mm | - | 0 W/m² | - |
| 1788597791 | 20° C | 95% | 1014.6 hPa | 33.53 mm | - | 0 W/m² | - |
| 1788597486 | 20° C | 95% | 1013.6 hPa | 42.67 mm | - | 0 W/m² | - |
| 1788597183 | 20° C | 95% | 1014.5 hPa | 26.42 mm | - | 0 W/m² | - |
| 1788596877 | 20.56° C | 95% | 1014 hPa | 7.11 mm | - | 0 W/m² | - |
| 1788596574 | 20.56° C | 95% | 1014 hPa | 0.51 mm | - | 0 W/m² | - |
| 1788596274 | 20° C | 94% | 1014.4 hPa | 0 mm | - | 0 W/m² | - |
| 1788595969 | 20.56° C | 94% | 1014.3 hPa | 0 mm | - | 0 W/m² | - |
| 1788595669 | 20.56° C | 94% | 1014.4 hPa | 0.51 mm | - | 0 W/m² | - |
| 1788595368 | 20.56° C | 94% | 1013.8 hPa | 0.51 mm | - | 0 W/m² | - |
| 1788595067 | 21.11° C | 94% | 1013.9 hPa | 5.33 mm | - | 0 W/m² | - |
| 1788594767 | 21.67° C | 94% | 1014.1 hPa | 4.32 mm | - | 0 W/m² | - |
| 1788594465 | 22.78° C | 87% | 1014.3 hPa | 0 mm | - | 0 W/m² | - |
| 1788594162 | 23.33° C | 87% | 1013.9 hPa | 0 mm | - | 0 W/m² | - |
| 1788581035 | 25.56° C | 92% | 1013.9 hPa | 0 mm | - | 0 W/m² | - |
| 1788580734 | 25.56° C | 92% | 1013.9 hPa | 0 mm | - | 0 W/m² | - |
| 1788580430 | 25.56° C | 92% | 1013.9 hPa | 0 mm | - | 0 W/m² | - |
* Rain latest hour (hover to see other rain measurements)
** Current wind speed in m/s (hover to see current wind gust speed)